Regional Weather Roundup
Issued by NWS Little Rock, AR

Home | Current Version | Previous Version | Text Only | Print | Product List | Glossary Off
Versions: 1 2 3 4 5 6 7 8 9 10 11 12 13 14 15 16 17 18 19 20 21 22 23 24 25 26 27 28 29 30 31 32 33 34 35 36 37 38 39 40 41 42 43 44 45 46 47 48 49 50

689
ASUS44 KLZK 221105
RWRLZK

WEATHER ROUNDUP FOR ARKANSAS
NATIONAL WEATHER SERVICE LITTLE ROCK AR
500 AM CST SUN JAN 22 2017

NOTE: "FAIR" INDICATES FEW OR NO CLOUDS BELOW 12,000 FEET WITH NO
SIGNIFICANT WEATHER AND/OR OBSTRUCTIONS TO VISIBILITY.

ARZ001-003-010-029-221200-
NORTHWEST ARKANSAS

CITY           SKY/WX    TMP DP  RH WIND       PRES   REMARKS
FAYETTEVILLE   HVY RAIN  50  50 100 CALM      29.36S FOG
FORT SMITH     CLOUDY    53  52  96 CALM      29.36S
HARRISON       CLOUDY    50  49  96 E7        29.37F
BENTONVILLE    MOCLDY   N/A N/A N/A NE10      29.37F
ROGERS         LGT RAIN  51  50  96 NW5       29.38S
SILOAM SPGS    CLOUDY    52  48  87 N5        29.35F
HIGHFILL       LGT RAIN  52  51  97 NE8       29.36F
$$

ARZ004-005-016-221200-
NORTH CENTRAL ARKANSAS

CITY           SKY/WX    TMP DP  RH WIND       PRES   REMARKS
BATESVILLE     CLOUDY    54  52  94 SE3       29.43F
FLIPPIN        CLOUDY    54  46  76 E5        29.37F
MTN HOME       CLOUDY    54  53  97 E6        29.39S
$$

ARZ040-041-221200-
WEST CENTRAL ARKANSAS

CITY           SKY/WX    TMP DP  RH WIND       PRES   REMARKS
MENA           CLOUDY    54  52  94 CALM      29.37S
MOUNT IDA      CLOUDY    55  54  96 CALM      29.33F
$$

ARZ009-017-025-026-028-221200-
NORTHEAST ARKANSAS

CITY           SKY/WX    TMP DP  RH WIND       PRES   REMARKS
CORNING        PTSUNNY   54  54 100 N7        29.44S
JONESBORO      CLOUDY    54  52  93 NW5       29.43S
NEWPORT        CLOUDY    55  54  96 MISG      29.42S
WALNUT RIDGE   CLOUDY    54  48  82 E3        29.43S
BLYTHEVILLE    LGT RAIN  55  52  89 N5        29.43F
$$

ARZ022-023-033-042-044-221200-
CENTRAL ARKANSAS

CITY           SKY/WX    TMP DP  RH WIND       PRES   REMARKS
LITTLE ROCK    CLOUDY    50  50 100 S3        29.37F
N LITTLE ROCK    N/A     53  51  94 SE6       29.38F
JACKSONVILLE   MOCLDY    51  51 100 CALM      29.36F FOG
SEARCY         MOCLDY    54  54 100 E9        29.38F FOG
HOT SPRINGS    LGT RAIN  55  55 100 VRB3      29.38R
RUSSELLVILLE   CLOUDY    54  53  97 CALM      29.35S
$$

ARZ036-221200-
EAST ARKANSAS

CITY           SKY/WX    TMP DP  RH WIND       PRES   REMARKS
WEST MEMPHIS   CLOUDY    56  55  97 W3        29.41R
$$

ARZ050-053-066-070-073-221200-
SOUTHWEST ARKANSAS

CITY           SKY/WX    TMP DP  RH WIND       PRES   REMARKS
ARKADELPHIA    FAIR      53  52  96 E3        29.39F
CAMDEN         CLOUDY    54  50  87 CALM      29.39F FOG
TEXARKANA      CLOUDY    54  50  86 S9        29.37F
EL DORADO        N/A    N/A N/A N/A MISG      29.42F
DE QUEEN       FOG       50  50 100 CALM      29.36S VSB 1/2
$$

ARZ056-057-069-221200-
SOUTHEAST ARKANSAS

CITY           SKY/WX    TMP DP  RH WIND       PRES   REMARKS
PINE BLUFF     MOCLDY    53  53 100 SE6       29.40R FOG
STUTTGART      CLOUDY    55  48  76 E9        29.38F
MONTICELLO     CLOUDY    55  53  93 VRB3      29.43R

$$






USA.gov is the U.S. government's official web portal to all federal, state and local government web resources and services.